Time,TemperatureF,DewpointF,PressureIn,WindDirection,WindDirectionDegrees,WindSpeedMPH,WindSpeedGustMPH,Humidity,HourlyPrecipIn,Conditions,Clouds,dailyrainin,SolarRadiationWatts/m^2,SoftwareType,DateUTC
2013-01-01 00:00:00,2.2,-1.5,30.23,WNW,285,0.0,0.0,84,0.00,,---,0.00,0.00,VWS V14.01,2013-01-01 06:00:00,
2013-01-01 00:05:00,2.3,-1.2,30.23,WNW,285,0.0,1.0,85,0.00,,---,0.00,0.00,VWS V14.01,2013-01-01 06:05:00,
2013-01-01 00:10:00,2.3,-1.2,30.23,WNW,285,0.0,1.0,85,0.00,,---,0.00,0.00,VWS V14.01,2013-01-01 06:10:00,
2013-01-01 00:20:00,2.3,-0.9,30.24,WNW,285,0.0,1.0,86,0.00,,---,0.00,0.00,VWS V14.01,2013-01-01 06:20:00,
2013-01-01 00:25:00,2.3,-0.9,30.23,WNW,285,0.0,1.0,86,0.00,,---,0.00,0.00,VWS V14.01,2013-01-01 06:25:00,
2013-01-01 00:30:00,2.3,-0.9,30.23,WNW,285,0.0,1.0,86,0.00,,---,0.00,0.00,VWS V14.01,2013-01-01 06:30:00,
2013-01-01 00:35:00,2.5,-0.5,30.23,WNW,285,0.0,1.0,87,0.00,,---,0.00,0.00,VWS V14.01,2013-01-01 06:35:00,
2013-01-01 00:40:00,2.8,-0.2,30.23,WNW,285,0.0,1.0,87,0.00,,---,0.00,0.00,VWS V14.01,2013-01-01 06:40:00,
2013-01-01 00:45:00,2.8,-0.2,30.23,WNW,285,0.0,1.0,87,0.00,,---,0.00,0.00,VWS V14.01,2013-01-01 06:45:00,
2013-01-01 00:50:00,2.8,-0.2,30.24,WNW,285,0.0,1.0,87,0.00,,---,0.00,0.00,VWS V14.01,2013-01-01 06:50:00,
2013-01-01 00:55:00,2.7,-0.3,30.23,WNW,285,0.0,1.0,87,0.00,,---,0.00,0.00,VWS V14.01,2013-01-01 06:55:00,
2013-01-01 01:00:00,2.7,-0.3,30.23,WNW,285,1.0,1.0,87,0.00,,---,0.00,0.00,VWS V14.01,2013-01-01 07:00:00,
2013-01-01 01:05:00,2.7,-0.3,30.23,WNW,285,0.0,2.0,87,0.00,,---,0.00,0.00,VWS V14.01,2013-01-01 07:05:00,
2013-01-01 01:10:00,2.7,-0.3,30.23,WNW,285,0.0,2.0,87,0.00,,---,0.00,0.00,VWS V14.01,2013-01-01 07:10:00,
2013-01-01 01:15:00,2.7,-0.3,30.23,WNW,285,0.0,2.0,87,0.00,,---,0.00,0.00,VWS V14.01,2013-01-01 07:15:00,
2013-01-01 01:20:00,2.7,-0.3,30.23,WNW,285,0.0,2.0,87,0.00,,---,0.00,0.00,VWS V14.01,2013-01-01 07:20:00,
2013-01-01 01:25:00,2.7,-0.3,30.23,WNW,285,0.0,2.0,87,0.00,,---,0.00,0.00,VWS V14.01,2013-01-01 07:25:00,
2013-01-01 01:30:00,2.6,-0.6,30.24,WNW,285,0.0,2.0,86,0.00,,---,0.00,0.00,VWS V14.01,2013-01-01 07:30:00,
2013-01-01 01:35:00,2.4,-0.8,30.24,WNW,285,0.0,2.0,86,0.00,,---,0.00,0.00,VWS V14.01,2013-01-01 07:35:00,
2013-01-01 01:40:00,2.1,-1.1,30.23,WNW,285,0.0,2.0,86,0.00,,---,0.00,0.00,VWS V14.01,2013-01-01 07:40:00,
2013-01-01 01:50:00,1.6,-1.9,30.24,WNW,285,0.0,2.0,85,0.00,,---,0.00,0.00,VWS V14.01,2013-01-01 07:50:00,
2013-01-01 01:55:00,1.2,-2.2,30.24,WNW,285,0.0,2.0,85,0.00,,---,0.00,0.00,VWS V14.01,2013-01-01 07:55:00,
2013-01-01 02:00:00,0.9,-2.5,30.24,WNW,285,0.0,0.0,85,0.00,,---,0.00,0.00,VWS V14.01,2013-01-01 08:00:00,
2013-01-01 02:05:00,0.6,-2.8,30.25,WNW,285,0.0,0.0,85,0.00,,---,0.00,0.00,VWS V14.01,2013-01-01 08:05:00,
2013-01-01 02:10:00,0.4,-3.3,30.25,WNW,285,0.0,1.0,84,0.00,,---,0.00,0.00,VWS V14.01,2013-01-01 08:10:00,
2013-01-01 02:15:00,0.1,-3.6,30.25,WNW,285,1.0,1.0,84,0.00,,---,0.00,0.00,VWS V14.01,2013-01-01 08:15:00,
2013-01-01 02:20:00,-0.5,-4.4,30.25,WNW,285,3.0,3.0,83,0.00,,---,0.00,0.00,VWS V14.01,2013-01-01 08:20:00,
2013-01-01 02:25:00,-1.3,-5.4,30.25,WNW,285,1.0,3.0,82,0.00,,---,0.00,0.00,VWS V14.01,2013-01-01 08:25:00,
2013-01-01 02:30:00,-1.6,-5.5,30.25,WNW,285,0.0,3.0,83,0.00,,---,0.00,0.00,VWS V14.01,2013-01-01 08:30:00,
2013-01-01 02:35:00,-2.1,-6.2,30.25,WNW,285,1.0,3.0,82,0.00,,---,0.00,0.00,VWS V14.01,2013-01-01 08:35:00,
2013-01-01 02:40:00,-2.5,-6.4,30.25,NNW,338,0.0,3.0,83,0.00,,---,0.00,0.00,VWS V14.01,2013-01-01 08:40:00,
2013-01-01 02:45:00,-2.6,-6.5,30.25,NNW,338,0.0,3.0,83,0.00,,---,0.00,0.00,VWS V14.01,2013-01-01 08:45:00,
2013-01-01 02:50:00,-2.6,-6.2,30.25,NNW,338,0.0,3.0,84,0.00,,---,0.00,0.00,VWS V14.01,2013-01-01 08:50:00,
2013-01-01 02:55:00,-2.7,-6.3,30.25,NNW,338,0.0,3.0,84,0.00,,---,0.00,0.00,VWS V14.01,2013-01-01 08:55:00,
2013-01-01 03:00:00,-2.7,-6.3,30.25,NNW,338,0.0,0.0,84,0.00,,---,0.00,0.00,VWS V14.01,2013-01-01 09:00:00,
2013-01-01 03:05:00,-3.0,-6.6,30.25,NNW,338,1.0,2.0,84,0.00,,---,0.00,0.00,VWS V14.01,2013-01-01 09:05:00,
2013-01-01 03:10:00,-3.5,-7.4,30.25,NNW,338,1.0,2.0,83,0.00,,---,0.00,0.00,VWS V14.01,2013-01-01 09:10:00,
2013-01-01 03:15:00,-3.9,-7.8,30.25,NNW,338,0.0,2.0,83,0.00,,---,0.00,0.00,VWS V14.01,2013-01-01 09:15:00,
2013-01-01 03:20:00,-4.2,-8.0,30.25,NNW,338,0.0,2.0,83,0.00,,---,0.00,0.00,VWS V14.01,2013-01-01 09:20:00,
2013-01-01 03:25:00,-4.4,-8.2,30.25,NNW,338,1.0,2.0,83,0.00,,---,0.00,0.00,VWS V14.01,2013-01-01 09:25:00,
2013-01-01 03:30:00,-4.6,-8.4,30.25,NNW,338,2.0,2.0,83,0.00,,---,0.00,0.00,VWS V14.01,2013-01-01 09:30:00,
2013-01-01 03:35:00,-4.8,-8.6,30.25,West,278,2.0,3.0,83,0.00,,---,0.00,0.00,VWS V14.01,2013-01-01 09:35:00,
2013-01-01 03:40:00,-5.0,-8.8,30.25,West,277,1.0,3.0,83,0.00,,---,0.00,0.00,VWS V14.01,2013-01-01 09:40:00,
2013-01-01 03:45:00,-5.2,-9.0,30.25,West,277,1.0,3.0,83,0.00,,---,0.00,0.00,VWS V14.01,2013-01-01 09:45:00,
2013-01-01 03:50:00,-5.3,-9.1,30.25,West,277,0.0,3.0,83,0.00,,---,0.00,0.00,VWS V14.01,2013-01-01 09:50:00,
2013-01-01 03:55:00,-5.5,-9.3,30.25,West,277,1.0,3.0,83,0.00,,---,0.00,0.00,VWS V14.01,2013-01-01 09:55:00,
2013-01-01 04:00:00,-5.8,-9.6,30.26,West,277,0.0,0.0,83,0.00,,---,0.00,0.00,VWS V14.01,2013-01-01 10:00:00,
2013-01-01 04:05:00,-5.9,-9.7,30.26,West,277,0.0,0.0,83,0.00,,---,0.00,0.00,VWS V14.01,2013-01-01 10:05:00,
2013-01-01 04:10:00,-6.0,-9.8,30.26,West,277,0.0,0.0,83,0.00,,---,0.00,0.00,VWS V14.01,2013-01-01 10:10:00,
2013-01-01 04:15:00,-6.0,-9.6,30.26,West,277,1.0,1.0,84,0.00,,---,0.00,0.00,VWS V14.01,2013-01-01 10:15:00,
2013-01-01 04:25:00,-6.1,-9.7,30.26,West,277,0.0,1.0,84,0.00,,---,0.00,0.00,VWS V14.01,2013-01-01 10:25:00,
2013-01-01 04:30:00,-6.3,-9.9,30.26,West,277,0.0,1.0,84,0.00,,---,0.00,0.00,VWS V14.01,2013-01-01 10:30:00,
2013-01-01 04:35:00,-6.6,-10.4,30.26,West,277,1.0,2.0,83,0.00,,---,0.00,0.00,VWS V14.01,2013-01-01 10:35:00,
2013-01-01 04:40:00,-6.8,-10.6,30.27,West,277,0.0,2.0,83,0.00,,---,0.00,0.00,VWS V14.01,2013-01-01 10:40:00,
2013-01-01 04:45:00,-7.1,-10.9,30.27,West,277,0.0,2.0,83,0.00,,---,0.00,0.00,VWS V14.01,2013-01-01 10:45:00,
2013-01-01 04:50:00,-7.4,-11.2,30.27,West,277,0.0,2.0,83,0.00,,---,0.00,0.00,VWS V14.01,2013-01-01 10:50:00,
2013-01-01 04:55:00,-7.6,-11.4,30.27,West,277,1.0,2.0,83,0.00,,---,0.00,0.00,VWS V14.01,2013-01-01 10:55:00,
2013-01-01 05:00:00,-8.0,-12.0,30.27,West,277,1.0,2.0,82,0.00,,---,0.00,0.00,VWS V14.01,2013-01-01 11:00:00,
2013-01-01 05:05:00,-8.2,-12.2,30.28,West,277,0.0,2.0,82,0.00,,---,0.00,0.00,VWS V14.01,2013-01-01 11:05:00,
2013-01-01 05:10:00,-8.4,-12.2,30.28,West,277,0.0,2.0,83,0.00,,---,0.00,0.00,VWS V14.01,2013-01-01 11:10:00,
2013-01-01 05:15:00,-8.6,-12.4,30.28,West,277,1.0,2.0,83,0.00,,---,0.00,0.00,VWS V14.01,2013-01-01 11:15:00,
2013-01-01 05:20:00,-8.6,-12.4,30.28,West,277,0.0,2.0,83,0.00,,---,0.00,0.00,VWS V14.01,2013-01-01 11:20:00,
2013-01-01 05:25:00,-8.7,-12.5,30.28,West,277,0.0,2.0,83,0.00,,---,0.00,0.00,VWS V14.01,2013-01-01 11:25:00,
2013-01-01 05:30:00,-8.8,-12.6,30.28,West,277,1.0,2.0,83,0.00,,---,0.00,0.00,VWS V14.01,2013-01-01 11:30:00,
2013-01-01 05:35:00,-8.9,-12.7,30.28,West,277,1.0,2.0,83,0.00,,---,0.00,0.00,VWS V14.01,2013-01-01 11:35:00,
2013-01-01 05:40:00,-9.1,-12.9,30.28,West,277,1.0,2.0,83,0.00,,---,0.00,0.00,VWS V14.01,2013-01-01 11:40:00,
2013-01-01 05:45:00,-9.3,-13.1,30.28,West,277,0.0,2.0,83,0.00,,---,0.00,0.00,VWS V14.01,2013-01-01 11:45:00,
2013-01-01 05:50:00,-9.5,-13.2,30.29,West,277,1.0,2.0,83,0.00,,---,0.00,0.00,VWS V14.01,2013-01-01 11:50:00,
2013-01-01 05:55:00,-9.6,-13.3,30.29,West,277,2.0,2.0,83,0.00,,---,0.00,0.00,VWS V14.01,2013-01-01 11:55:00,
2013-01-01 06:00:00,-9.7,-13.4,30.29,West,277,1.0,2.0,83,0.00,,---,0.00,0.00,VWS V14.01,2013-01-01 12:00:00,
2013-01-01 06:05:00,-9.8,-13.5,30.29,West,277,0.0,2.0,83,0.00,,---,0.00,0.00,VWS V14.01,2013-01-01 12:05:00,
2013-01-01 06:10:00,-9.9,-13.6,30.29,West,277,1.0,2.0,83,0.00,,---,0.00,0.00,VWS V14.01,2013-01-01 12:10:00,
2013-01-01 06:15:00,-10.1,-13.8,30.29,West,277,1.0,2.0,83,0.00,,---,0.00,0.00,VWS V14.01,2013-01-01 12:15:00,
2013-01-01 06:20:00,-10.2,-13.9,30.29,West,277,1.0,2.0,83,0.00,,---,0.00,0.00,VWS V14.01,2013-01-01 12:20:00,
2013-01-01 06:26:00,-10.3,-14.0,30.29,West,277,0.0,2.0,83,0.00,,---,0.00,0.00,VWS V14.01,2013-01-01 12:26:00,
2013-01-01 06:31:00,-10.4,-14.1,30.30,West,277,0.0,2.0,83,0.00,,---,0.00,0.00,VWS V14.01,2013-01-01 12:31:00,
2013-01-01 06:36:00,-10.4,-14.1,30.30,West,277,0.0,2.0,83,0.00,,---,0.00,0.00,VWS V14.01,2013-01-01 12:36:00,
2013-01-01 06:41:00,-10.6,-14.3,30.30,West,277,0.0,2.0,83,0.00,,---,0.00,0.00,VWS V14.01,2013-01-01 12:41:00,
2013-01-01 06:46:00,-10.7,-14.4,30.31,West,277,0.0,2.0,83,0.00,,---,0.00,0.00,VWS V14.01,2013-01-01 12:46:00,
2013-01-01 06:51:00,-10.9,-14.6,30.31,West,277,0.0,2.0,83,0.00,,---,0.00,0.00,VWS V14.01,2013-01-01 12:51:00,
2013-01-01 06:56:00,-10.9,-14.6,30.31,West,277,0.0,2.0,83,0.00,,---,0.00,0.00,VWS V14.01,2013-01-01 12:56:00,
2013-01-01 07:00:00,-10.8,-14.5,30.31,West,277,0.0,2.0,83,0.00,,---,0.00,0.00,VWS V14.01,2013-01-01 13:00:00,
2013-01-01 07:01:00,-10.8,-14.5,30.31,West,277,0.0,0.0,83,0.00,,---,0.00,0.00,VWS V14.01,2013-01-01 13:01:00,
2013-01-01 07:06:00,-10.6,-14.1,30.31,West,277,0.0,0.0,84,0.00,,---,0.00,0.00,VWS V14.01,2013-01-01 13:06:00,
2013-01-01 07:11:00,-10.4,-13.9,30.31,West,277,0.0,0.0,84,0.00,,---,0.00,0.00,VWS V14.01,2013-01-01 13:11:00,
2013-01-01 07:16:00,-10.2,-13.7,30.31,West,277,0.0,0.0,84,0.00,,---,0.00,0.00,VWS V14.01,2013-01-01 13:16:00,
2013-01-01 07:21:00,-10.0,-13.5,30.31,West,277,0.0,1.0,84,0.00,,---,0.00,0.00,VWS V14.01,2013-01-01 13:21:00,
2013-01-01 07:26:00,-10.0,-13.5,30.32,West,277,0.0,1.0,84,0.00,,---,0.00,0.00,VWS V14.01,2013-01-01 13:26:00,
2013-01-01 07:31:00,-10.2,-13.7,30.32,West,277,0.0,1.0,84,0.00,,---,0.00,0.00,VWS V14.01,2013-01-01 13:31:00,
2013-01-01 07:36:00,-10.3,-13.8,30.32,West,277,0.0,1.0,84,0.00,,---,0.00,5.00,VWS V14.01,2013-01-01 13:36:00,
2013-01-01 07:41:00,-10.4,-13.9,30.32,West,277,0.0,1.0,84,0.00,,---,0.00,7.00,VWS V14.01,2013-01-01 13:41:00,
2013-01-01 07:46:00,-10.4,-13.9,30.32,West,277,0.0,1.0,84,0.00,,---,0.00,11.00,VWS V14.01,2013-01-01 13:46:00,
2013-01-01 07:51:00,-10.3,-13.8,30.32,West,277,0.0,1.0,84,0.00,,---,0.00,12.00,VWS V14.01,2013-01-01 13:51:00,
2013-01-01 07:56:00,-10.3,-13.8,30.32,West,277,0.0,1.0,84,0.00,,---,0.00,14.00,VWS V14.01,2013-01-01 13:56:00,
2013-01-01 08:00:00,-10.3,-13.8,30.33,West,277,0.0,1.0,84,0.00,,---,0.00,14.00,VWS V14.01,2013-01-01 14:00:00,
2013-01-01 08:01:00,-10.2,-13.7,30.32,West,277,0.0,0.0,84,0.00,,---,0.00,16.00,VWS V14.01,2013-01-01 14:01:00,
2013-01-01 08:06:00,-10.2,-13.7,30.33,West,277,0.0,0.0,84,0.00,,---,0.00,18.00,VWS V14.01,2013-01-01 14:06:00,
2013-01-01 08:11:00,-10.1,-13.6,30.32,West,277,0.0,0.0,84,0.00,,---,0.00,19.00,VWS V14.01,2013-01-01 14:11:00,
2013-01-01 08:16:00,-9.8,-13.3,30.32,West,277,0.0,0.0,84,0.00,,---,0.00,25.00,VWS V14.01,2013-01-01 14:16:00,
2013-01-01 08:21:00,-9.6,-12.9,30.32,West,277,0.0,0.0,85,0.00,,---,0.00,28.00,VWS V14.01,2013-01-01 14:21:00,
2013-01-01 08:26:00,-9.4,-9.8,30.33,West,277,0.0,1.0,98,0.00,,---,0.00,37.00,VWS V14.01,2013-01-01 14:26:00,
2013-01-01 08:31:00,-9.2,-12.5,30.33,West,277,0.0,1.0,85,0.00,,---,0.00,28.00,VWS V14.01,2013-01-01 14:31:00,
2013-01-01 08:36:00,-9.0,-12.3,30.32,West,277,0.0,1.0,85,0.00,,---,0.00,37.00,VWS V14.01,2013-01-01 14:36:00,
2013-01-01 08:41:00,-8.8,-12.1,30.32,West,277,0.0,1.0,85,0.00,,---,0.00,26.00,VWS V14.01,2013-01-01 14:41:00,
2013-01-01 08:46:00,-8.6,-11.9,30.32,West,277,0.0,1.0,85,0.00,,---,0.00,58.00,VWS V14.01,2013-01-01 14:46:00,
2013-01-01 08:51:00,-8.4,-11.7,30.32,West,277,1.0,2.0,85,0.00,,---,0.00,72.00,VWS V14.01,2013-01-01 14:51:00,
2013-01-01 08:56:00,-8.3,-11.6,30.32,West,277,3.0,3.0,85,0.00,,---,0.00,44.00,VWS V14.01,2013-01-01 14:56:00,
2013-01-01 09:00:00,-8.2,-11.7,30.32,West,277,2.0,3.0,84,0.00,,---,0.00,33.00,VWS V14.01,2013-01-01 15:00:00,
2013-01-01 09:01:00,-8.2,-11.7,30.32,West,277,2.0,2.0,84,0.00,,---,0.00,35.00,VWS V14.01,2013-01-01 15:01:00,
2013-01-01 09:06:00,-7.9,-11.2,30.32,West,277,2.0,3.0,85,0.00,,---,0.00,32.00,VWS V14.01,2013-01-01 15:06:00,
2013-01-01 09:11:00,-7.6,-10.9,30.32,West,277,1.0,3.0,85,0.00,,---,0.00,40.00,VWS V14.01,2013-01-01 15:11:00,
2013-01-01 09:16:00,-7.3,-10.6,30.32,West,277,2.0,3.0,85,0.00,,---,0.00,77.00,VWS V14.01,2013-01-01 15:16:00,
2013-01-01 09:21:00,-6.6,-9.7,30.32,West,277,1.0,3.0,86,0.00,,---,0.00,98.00,VWS V14.01,2013-01-01 15:21:00,
2013-01-01 09:26:00,-6.3,-9.4,30.32,West,277,1.0,3.0,86,0.00,,---,0.00,91.00,VWS V14.01,2013-01-01 15:26:00,
2013-01-01 09:31:00,-5.8,-8.9,30.32,West,277,2.0,3.0,86,0.00,,---,0.00,91.00,VWS V14.01,2013-01-01 15:31:00,
2013-01-01 09:36:00,-4.9,-7.8,30.32,West,277,3.0,3.0,87,0.00,,---,0.00,97.00,VWS V14.01,2013-01-01 15:36:00,
2013-01-01 09:41:00,-4.2,-7.1,30.32,West,277,1.0,3.0,87,0.00,,---,0.00,118.00,VWS V14.01,2013-01-01 15:41:00,
2013-01-01 09:46:00,-3.4,-6.3,30.32,West,277,1.0,3.0,87,0.00,,---,0.00,158.00,VWS V14.01,2013-01-01 15:46:00,
2013-01-01 09:51:00,-2.3,-5.2,30.32,West,277,2.0,3.0,87,0.00,,---,0.00,232.00,VWS V14.01,2013-01-01 15:51:00,
2013-01-01 09:56:00,-1.6,-4.5,30.32,West,277,3.0,3.0,87,0.00,,---,0.00,243.00,VWS V14.01,2013-01-01 15:56:00,
2013-01-01 10:00:00,-1.2,-4.4,30.32,West,277,2.0,3.0,86,0.00,,---,0.00,269.00,VWS V14.01,2013-01-01 16:00:00,
2013-01-01 10:01:00,-1.1,-4.3,30.32,West,277,2.0,2.0,86,0.00,,---,0.00,283.00,VWS V14.01,2013-01-01 16:01:00,
2013-01-01 10:06:00,-0.6,-3.8,30.32,West,277,2.0,3.0,86,0.00,,---,0.00,316.00,VWS V14.01,2013-01-01 16:06:00,
2013-01-01 10:11:00,-0.1,-3.4,30.31,West,277,1.0,3.0,85,0.00,,---,0.00,325.00,VWS V14.01,2013-01-01 16:11:00,
2013-01-01 10:16:00,0.6,-2.8,30.31,West,277,1.0,3.0,85,0.00,,---,0.00,334.00,VWS V14.01,2013-01-01 16:16:00,
2013-01-01 10:21:00,1.7,-1.8,30.31,West,277,2.0,3.0,85,0.00,,---,0.00,343.00,VWS V14.01,2013-01-01 16:21:00,
2013-01-01 10:26:00,2.5,-1.2,30.31,West,276,3.0,3.0,84,0.00,,---,0.00,350.00,VWS V14.01,2013-01-01 16:26:00,
2013-01-01 10:31:00,3.4,-0.3,30.31,West,275,2.0,4.0,84,0.00,,---,0.00,359.00,VWS V14.01,2013-01-01 16:31:00,
2013-01-01 10:36:00,4.7,0.4,30.30,WSW,257,3.0,4.0,82,0.00,,---,0.00,366.00,VWS V14.01,2013-01-01 16:36:00,
2013-01-01 10:41:00,5.2,0.6,30.30,WSW,254,3.0,4.0,81,0.00,,---,0.00,373.00,VWS V14.01,2013-01-01 16:41:00,
2013-01-01 10:46:00,5.5,0.4,30.30,WSW,250,2.0,5.0,79,0.00,,---,0.00,374.00,VWS V14.01,2013-01-01 16:46:00,
2013-01-01 10:51:00,5.8,0.7,30.30,WSW,250,2.0,5.0,79,0.00,,---,0.00,381.00,VWS V14.01,2013-01-01 16:51:00,
2013-01-01 10:56:00,6.2,1.1,30.30,WSW,248,4.0,5.0,79,0.00,,---,0.00,388.00,VWS V14.01,2013-01-01 16:56:00,
2013-01-01 11:00:00,6.7,1.3,30.29,WNW,293,1.0,5.0,78,0.00,,---,0.00,394.00,VWS V14.01,2013-01-01 17:00:00,
2013-01-01 11:01:00,6.9,1.5,30.29,WNW,293,0.0,1.0,78,0.00,,---,0.00,396.00,VWS V14.01,2013-01-01 17:01:00,
2013-01-01 11:06:00,7.7,2.0,30.29,West,267,1.0,4.0,77,0.00,,---,0.00,403.00,VWS V14.01,2013-01-01 17:06:00,
2013-01-01 11:11:00,8.2,2.2,30.29,NW,321,3.0,4.0,76,0.00,,---,0.00,408.00,VWS V14.01,2013-01-01 17:11:00,
2013-01-01 11:16:00,8.6,2.6,30.29,NW,323,1.0,6.0,76,0.00,,---,0.00,413.00,VWS V14.01,2013-01-01 17:16:00,
2013-01-01 11:21:00,9.1,2.8,30.29,WNW,296,2.0,6.0,75,0.00,,---,0.00,420.00,VWS V14.01,2013-01-01 17:21:00,
2013-01-01 11:26:00,9.4,2.8,30.28,WSW,256,3.0,6.0,74,0.00,,---,0.00,427.00,VWS V14.01,2013-01-01 17:26:00,
2013-01-01 11:31:00,9.7,3.1,30.28,WSW,251,2.0,6.0,74,0.00,,---,0.00,432.00,VWS V14.01,2013-01-01 17:31:00,
2013-01-01 11:36:00,10.1,3.2,30.28,WNW,301,2.0,6.0,73,0.00,,---,0.00,436.00,VWS V14.01,2013-01-01 17:36:00,
2013-01-01 11:41:00,10.3,3.1,30.28,West,263,1.0,6.0,72,0.00,,---,0.00,438.00,VWS V14.01,2013-01-01 17:41:00,
2013-01-01 11:46:00,10.7,3.5,30.27,SW,231,2.0,6.0,72,0.00,,---,0.00,439.00,VWS V14.01,2013-01-01 17:46:00,
2013-01-01 11:51:00,10.8,3.3,30.27,WSW,252,2.0,6.0,71,0.00,,---,0.00,441.00,VWS V14.01,2013-01-01 17:51:00,
2013-01-01 11:56:00,11.1,3.5,30.27,West,279,3.0,6.0,71,0.00,,---,0.00,434.00,VWS V14.01,2013-01-01 17:56:00,
2013-01-01 12:00:00,11.2,3.3,30.27,West,269,2.0,6.0,70,0.00,,---,0.00,406.00,VWS V14.01,2013-01-01 18:00:00,
2013-01-01 12:01:00,11.2,3.3,30.27,WSW,251,1.0,2.0,70,0.00,,---,0.00,417.00,VWS V14.01,2013-01-01 18:01:00,
2013-01-01 12:06:00,11.5,3.3,30.27,West,261,3.0,6.0,69,0.00,,---,0.00,360.00,VWS V14.01,2013-01-01 18:06:00,
2013-01-01 12:11:00,11.6,3.4,30.27,West,267,3.0,6.0,69,0.00,,---,0.00,244.00,VWS V14.01,2013-01-01 18:11:00,
2013-01-01 12:16:00,11.8,3.3,30.26,NW,308,0.0,6.0,68,0.00,,---,0.00,288.00,VWS V14.01,2013-01-01 18:16:00,
2013-01-01 12:21:00,12.1,3.6,30.26,NW,307,1.0,6.0,68,0.00,,---,0.00,323.00,VWS V14.01,2013-01-01 18:21:00,
2013-01-01 12:26:00,12.1,3.6,30.26,WNW,298,2.0,6.0,68,0.00,,---,0.00,251.00,VWS V14.01,2013-01-01 18:26:00,
2013-01-01 12:31:00,12.0,3.5,30.26,West,263,2.0,6.0,68,0.00,,---,0.00,234.00,VWS V14.01,2013-01-01 18:31:00,
2013-01-01 12:36:00,12.3,3.8,30.26,WSW,246,3.0,6.0,68,0.00,,---,0.00,257.00,VWS V14.01,2013-01-01 18:36:00,
2013-01-01 12:41:00,12.5,4.0,30.26,WSW,253,4.0,6.0,68,0.00,,---,0.00,167.00,VWS V14.01,2013-01-01 18:41:00,
2013-01-01 12:46:00,13.0,3.8,30.26,West,259,3.0,6.0,66,0.00,,---,0.00,306.00,VWS V14.01,2013-01-01 18:46:00,
2013-01-01 12:51:00,13.0,3.5,30.26,WSW,242,3.0,6.0,65,0.00,,---,0.00,135.00,VWS V14.01,2013-01-01 18:51:00,
2013-01-01 12:56:00,13.5,3.9,30.25,WSW,252,2.0,6.0,65,0.00,,---,0.00,130.00,VWS V14.01,2013-01-01 18:56:00,
2013-01-01 13:00:00,13.9,4.3,30.25,WSW,253,2.0,6.0,65,0.00,,---,0.00,236.00,VWS V14.01,2013-01-01 19:00:00,
2013-01-01 13:01:00,14.0,4.4,30.25,WSW,253,1.0,3.0,65,0.00,,---,0.00,220.00,VWS V14.01,2013-01-01 19:01:00,
2013-01-01 13:06:00,13.9,4.0,30.25,WSW,247,2.0,6.0,64,0.00,,---,0.00,206.00,VWS V14.01,2013-01-01 19:06:00,
2013-01-01 13:11:00,14.4,4.5,30.25,West,259,1.0,6.0,64,0.00,,---,0.00,128.00,VWS V14.01,2013-01-01 19:11:00,
2013-01-01 13:16:00,14.6,4.3,30.25,West,261,3.0,6.0,63,0.00,,---,0.00,125.00,VWS V14.01,2013-01-01 19:16:00,
2013-01-01 13:21:00,14.7,4.4,30.25,WSW,254,3.0,6.0,63,0.00,,---,0.00,209.00,VWS V14.01,2013-01-01 19:21:00,
2013-01-01 13:26:00,14.8,4.5,30.25,WSW,238,3.0,6.0,63,0.00,,---,0.00,86.00,VWS V14.01,2013-01-01 19:26:00,
2013-01-01 13:31:00,14.9,4.2,30.25,WSW,242,3.0,6.0,62,0.00,,---,0.00,206.00,VWS V14.01,2013-01-01 19:31:00,
2013-01-01 13:36:00,14.6,4.3,30.25,WSW,253,5.0,6.0,63,0.00,,---,0.00,213.00,VWS V14.01,2013-01-01 19:36:00,
2013-01-01 13:41:00,14.9,4.6,30.25,West,259,2.0,6.0,63,0.00,,---,0.00,111.00,VWS V14.01,2013-01-01 19:41:00,
2013-01-01 13:46:00,15.2,4.5,30.25,WSW,245,2.0,6.0,62,0.00,,---,0.00,167.00,VWS V14.01,2013-01-01 19:46:00,
2013-01-01 13:51:00,15.4,4.7,30.24,WSW,253,3.0,6.0,62,0.00,,---,0.00,200.00,VWS V14.01,2013-01-01 19:51:00,
2013-01-01 13:56:00,15.4,3.7,30.24,WSW,252,6.0,6.0,59,0.00,,---,0.00,148.00,VWS V14.01,2013-01-01 19:56:00,
2013-01-01 14:00:00,15.6,3.5,30.24,WSW,256,4.0,6.0,58,0.00,,---,0.00,137.00,VWS V14.01,2013-01-01 20:00:00,
2013-01-01 14:01:00,15.7,3.6,30.24,WSW,258,5.0,5.0,58,0.00,,---,0.00,135.00,VWS V14.01,2013-01-01 20:01:00,
2013-01-01 14:06:00,15.6,3.1,30.24,WSW,254,2.0,5.0,57,0.00,,---,0.00,258.00,VWS V14.01,2013-01-01 20:06:00,
2013-01-01 14:11:00,15.5,3.4,30.24,West,259,1.0,5.0,58,0.00,,---,0.00,95.00,VWS V14.01,2013-01-01 20:11:00,
2013-01-01 14:15:00,15.8,3.3,30.24,West,263,3.0,5.0,57,0.00,,---,0.00,135.00,VWS V14.01,2013-01-01 20:15:00,
2013-01-01 14:20:00,16.0,3.5,30.24,West,263,1.0,5.0,57,0.00,,---,0.00,271.00,VWS V14.01,2013-01-01 20:20:00,
2013-01-01 14:25:00,16.1,3.6,30.24,WSW,238,3.0,5.0,57,0.00,,---,0.00,186.00,VWS V14.01,2013-01-01 20:25:00,
2013-01-01 14:30:00,15.9,3.0,30.24,West,260,2.0,5.0,56,0.00,,---,0.00,197.00,VWS V14.01,2013-01-01 20:30:00,
2013-01-01 14:35:00,16.1,3.6,30.24,WSW,248,3.0,5.0,57,0.00,,---,0.00,211.00,VWS V14.01,2013-01-01 20:35:00,
2013-01-01 14:40:00,16.2,3.7,30.24,West,269,3.0,5.0,57,0.00,,---,0.00,37.00,VWS V14.01,2013-01-01 20:40:00,
2013-01-01 14:45:00,16.6,3.7,30.24,West,270,1.0,5.0,56,0.00,,---,0.00,37.00,VWS V14.01,2013-01-01 20:45:00,
2013-01-01 14:50:00,16.7,3.7,30.24,WSW,239,3.0,5.0,56,0.00,,---,0.00,39.00,VWS V14.01,2013-01-01 20:50:00,
2013-01-01 14:55:00,16.5,3.5,30.24,SW,229,2.0,5.0,56,0.00,,---,0.00,35.00,VWS V14.01,2013-01-01 20:55:00,
2013-01-01 15:00:00,16.4,3.5,30.24,WNW,286,1.0,5.0,56,0.00,,---,0.00,37.00,VWS V14.01,2013-01-01 21:00:00,
2013-01-01 15:05:00,16.2,3.3,30.24,West,271,1.0,5.0,56,0.00,,---,0.00,33.00,VWS V14.01,2013-01-01 21:05:00,
2013-01-01 15:10:00,16.2,3.3,30.23,WSW,244,3.0,5.0,56,0.00,,---,0.00,33.00,VWS V14.01,2013-01-01 21:10:00,
2013-01-01 15:15:00,16.1,3.2,30.23,WSW,249,4.0,5.0,56,0.00,,---,0.00,47.00,VWS V14.01,2013-01-01 21:15:00,
2013-01-01 15:20:00,16.1,3.2,30.23,WSW,250,1.0,5.0,56,0.00,,---,0.00,69.00,VWS V14.01,2013-01-01 21:20:00,
2013-01-01 15:25:00,16.1,3.2,30.23,WSW,253,2.0,5.0,56,0.00,,---,0.00,54.00,VWS V14.01,2013-01-01 21:25:00,
2013-01-01 15:30:00,16.2,3.7,30.23,WSW,253,3.0,5.0,57,0.00,,---,0.00,100.00,VWS V14.01,2013-01-01 21:30:00,
2013-01-01 15:35:00,16.3,3.4,30.23,WSW,245,3.0,5.0,56,0.00,,---,0.00,86.00,VWS V14.01,2013-01-01 21:35:00,
2013-01-01 15:40:00,16.3,3.8,30.24,WSW,245,1.0,5.0,57,0.00,,---,0.00,74.00,VWS V14.01,2013-01-01 21:40:00,
2013-01-01 15:45:00,16.2,3.3,30.23,WSW,245,2.0,5.0,56,0.00,,---,0.00,25.00,VWS V14.01,2013-01-01 21:45:00,
2013-01-01 15:50:00,15.9,3.4,30.23,West,264,1.0,5.0,57,0.00,,---,0.00,28.00,VWS V14.01,2013-01-01 21:50:00,
2013-01-01 15:55:00,15.7,3.2,30.23,SW,227,2.0,5.0,57,0.00,,---,0.00,26.00,VWS V14.01,2013-01-01 21:55:00,
2013-01-01 16:00:00,15.3,2.8,30.23,SW,227,3.0,3.0,57,0.00,,---,0.00,25.00,VWS V14.01,2013-01-01 22:00:00,
2013-01-01 16:05:00,14.9,2.4,30.23,SW,227,1.0,3.0,57,0.00,,---,0.00,16.00,VWS V14.01,2013-01-01 22:05:00,
2013-01-01 16:10:00,14.6,2.5,30.23,SW,227,2.0,3.0,58,0.00,,---,0.00,16.00,VWS V14.01,2013-01-01 22:10:00,
2013-01-01 16:15:00,14.3,2.2,30.23,SW,227,1.0,3.0,58,0.00,,---,0.00,12.00,VWS V14.01,2013-01-01 22:15:00,
2013-01-01 16:20:00,14.2,2.5,30.23,SW,227,2.0,3.0,59,0.00,,---,0.00,11.00,VWS V14.01,2013-01-01 22:20:00,
2013-01-01 16:25:00,14.0,2.0,30.23,SW,227,1.0,3.0,58,0.00,,---,0.00,9.00,VWS V14.01,2013-01-01 22:25:00,
2013-01-01 16:30:00,13.8,2.1,30.23,SW,227,0.0,3.0,59,0.00,,---,0.00,7.00,VWS V14.01,2013-01-01 22:30:00,
2013-01-01 16:35:00,13.6,2.0,30.23,SW,227,0.0,3.0,59,0.00,,---,0.00,5.00,VWS V14.01,2013-01-01 22:35:00,
2013-01-01 16:41:00,13.4,1.8,30.23,SW,227,0.0,3.0,59,0.00,,---,0.00,0.00,VWS V14.01,2013-01-01 22:41:00,
2013-01-01 16:45:00,13.0,1.0,30.23,SW,227,1.0,3.0,58,0.00,,---,0.00,0.00,VWS V14.01,2013-01-01 22:45:00,
2013-01-01 16:50:00,12.3,0.3,30.23,SW,227,1.0,3.0,58,0.00,,---,0.00,0.00,VWS V14.01,2013-01-01 22:50:00,
2013-01-01 16:56:00,11.7,-0.6,30.23,SW,227,0.0,3.0,57,0.00,,---,0.00,0.00,VWS V14.01,2013-01-01 22:56:00,
2013-01-01 17:00:00,11.3,-0.6,30.23,SW,227,1.0,3.0,58,0.00,,---,0.00,0.00,VWS V14.01,2013-01-01 23:00:00,
2013-01-01 17:01:00,11.2,-0.7,30.23,SW,227,0.0,1.0,58,0.00,,---,0.00,0.00,VWS V14.01,2013-01-01 23:01:00,
2013-01-01 17:06:00,10.6,-1.2,30.23,SW,227,1.0,2.0,58,0.00,,---,0.00,0.00,VWS V14.01,2013-01-01 23:06:00,
2013-01-01 17:11:00,10.0,-1.5,30.24,SW,227,2.0,2.0,59,0.00,,---,0.00,0.00,VWS V14.01,2013-01-01 23:11:00,
2013-01-01 17:16:00,9.4,-2.0,30.24,SW,227,1.0,2.0,59,0.00,,---,0.00,0.00,VWS V14.01,2013-01-01 23:16:00,
2013-01-01 17:21:00,8.5,-2.5,30.24,SW,227,1.0,3.0,60,0.00,,---,0.00,0.00,VWS V14.01,2013-01-01 23:21:00,
2013-01-01 17:26:00,7.7,-2.6,30.24,SW,227,2.0,3.0,62,0.00,,---,0.00,0.00,VWS V14.01,2013-01-01 23:26:00,
2013-01-01 17:30:00,7.3,-2.3,30.24,West,260,2.0,4.0,64,0.00,,---,0.00,0.00,VWS V14.01,2013-01-01 23:30:00,
2013-01-01 17:35:00,7.8,-0.9,30.24,West,262,3.0,5.0,67,0.00,,---,0.00,0.00,VWS V14.01,2013-01-01 23:35:00,
2013-01-01 17:41:00,8.4,-0.3,30.24,West,263,5.0,5.0,67,0.00,,---,0.00,0.00,VWS V14.01,2013-01-01 23:41:00,
2013-01-01 17:45:00,9.0,0.3,30.24,WSW,248,3.0,5.0,67,0.00,,---,0.00,0.00,VWS V14.01,2013-01-01 23:45:00,
2013-01-01 17:50:00,9.4,0.3,30.24,WSW,248,1.0,5.0,66,0.00,,---,0.00,0.00,VWS V14.01,2013-01-01 23:50:00,
2013-01-01 17:55:00,9.2,-0.5,30.24,WSW,248,1.0,5.0,64,0.00,,---,0.00,0.00,VWS V14.01,2013-01-01 23:55:00,
2013-01-01 18:00:00,8.9,-1.1,30.24,WSW,248,0.0,1.0,63,0.00,,---,0.00,0.00,VWS V14.01,2013-01-02 00:00:00,
2013-01-01 18:05:00,8.6,-1.4,30.24,WSW,248,1.0,2.0,63,0.00,,---,0.00,0.00,VWS V14.01,2013-01-02 00:05:00,
2013-01-01 18:10:00,8.5,-1.5,30.23,WSW,248,0.0,2.0,63,0.00,,---,0.00,0.00,VWS V14.01,2013-01-02 00:10:00,
2013-01-01 18:15:00,8.3,-1.7,30.23,WSW,248,0.0,2.0,63,0.00,,---,0.00,0.00,VWS V14.01,2013-01-02 00:15:00,
2013-01-01 18:20:00,7.9,-2.4,30.23,WSW,248,1.0,2.0,62,0.00,,---,0.00,0.00,VWS V14.01,2013-01-02 00:20:00,
2013-01-01 18:25:00,7.2,-3.4,30.23,WSW,248,0.0,2.0,61,0.00,,---,0.00,0.00,VWS V14.01,2013-01-02 00:25:00,
2013-01-01 18:30:00,6.4,-3.8,30.23,WSW,248,1.0,2.0,62,0.00,,---,0.00,0.00,VWS V14.01,2013-01-02 00:30:00,
2013-01-01 18:35:00,5.8,-4.4,30.24,WSW,248,1.0,2.0,62,0.00,,---,0.00,0.00,VWS V14.01,2013-01-02 00:35:00,
2013-01-01 18:40:00,5.1,-4.7,30.24,WSW,248,0.0,2.0,63,0.00,,---,0.00,0.00,VWS V14.01,2013-01-02 00:40:00,
2013-01-01 18:45:00,4.6,-4.9,30.23,WSW,248,0.0,2.0,64,0.00,,---,0.00,0.00,VWS V14.01,2013-01-02 00:45:00,
2013-01-01 18:50:00,4.2,-5.3,30.23,WSW,248,0.0,2.0,64,0.00,,---,0.00,0.00,VWS V14.01,2013-01-02 00:50:00,
2013-01-01 18:55:00,3.7,-5.4,30.23,WSW,248,1.0,2.0,65,0.00,,---,0.00,0.00,VWS V14.01,2013-01-02 00:55:00,
2013-01-01 19:00:00,3.2,-5.6,30.23,WSW,248,1.0,1.0,66,0.00,,---,0.00,0.00,VWS V14.01,2013-01-02 01:00:00,
2013-01-01 19:05:00,2.8,-5.7,30.22,WSW,248,1.0,2.0,67,0.00,,---,0.00,0.00,VWS V14.01,2013-01-02 01:05:00,
2013-01-01 19:10:00,2.4,-5.7,30.22,WSW,248,0.0,2.0,68,0.00,,---,0.00,0.00,VWS V14.01,2013-01-02 01:10:00,
2013-01-01 19:15:00,2.1,-6.0,30.22,WSW,248,1.0,2.0,68,0.00,,---,0.00,0.00,VWS V14.01,2013-01-02 01:15:00,
2013-01-01 19:20:00,1.6,-6.5,30.22,WSW,248,1.0,2.0,68,0.00,,---,0.00,0.00,VWS V14.01,2013-01-02 01:20:00,
2013-01-01 19:25:00,1.1,-6.7,30.22,WSW,248,1.0,3.0,69,0.00,,---,0.00,0.00,VWS V14.01,2013-01-02 01:25:00,
2013-01-01 19:30:00,0.7,-6.8,30.22,WSW,248,1.0,3.0,70,0.00,,---,0.00,0.00,VWS V14.01,2013-01-02 01:30:00,
2013-01-01 19:35:00,0.4,-6.8,30.22,WSW,248,1.0,3.0,71,0.00,,---,0.00,0.00,VWS V14.01,2013-01-02 01:35:00,
2013-01-01 19:40:00,0.1,-7.1,30.22,WSW,248,1.0,3.0,71,0.00,,---,0.00,0.00,VWS V14.01,2013-01-02 01:40:00,
2013-01-01 19:45:00,-0.1,-7.0,30.22,WSW,248,0.0,3.0,72,0.00,,---,0.00,0.00,VWS V14.01,2013-01-02 01:45:00,
2013-01-01 19:50:00,-0.3,-6.9,30.22,WSW,248,0.0,3.0,73,0.00,,---,0.00,0.00,VWS V14.01,2013-01-02 01:50:00,
2013-01-01 19:55:00,-0.2,-6.5,30.22,WSW,248,0.0,3.0,74,0.00,,---,0.00,0.00,VWS V14.01,2013-01-02 01:55:00,
2013-01-01 20:00:00,-0.2,-6.2,30.22,WSW,248,0.0,1.0,75,0.00,,---,0.00,0.00,VWS V14.01,2013-01-02 02:00:00,
2013-01-01 20:05:00,0.1,-5.7,30.22,WSW,248,0.0,1.0,76,0.00,,---,0.00,0.00,VWS V14.01,2013-01-02 02:05:00,
2013-01-01 20:10:00,0.3,-5.2,30.21,WSW,248,0.0,1.0,77,0.00,,---,0.00,0.00,VWS V14.01,2013-01-02 02:10:00,
2013-01-01 20:15:00,0.6,-4.9,30.21,WSW,248,0.0,1.0,77,0.00,,---,0.00,0.00,VWS V14.01,2013-01-02 02:15:00,
2013-01-01 20:20:00,1.0,-4.2,30.21,WSW,248,0.0,1.0,78,0.00,,---,0.00,0.00,VWS V14.01,2013-01-02 02:20:00,
2013-01-01 20:25:00,1.4,-3.6,30.21,WSW,248,0.0,1.0,79,0.00,,---,0.00,0.00,VWS V14.01,2013-01-02 02:25:00,
2013-01-01 20:30:00,1.7,-3.3,30.21,WSW,248,0.0,1.0,79,0.00,,---,0.00,0.00,VWS V14.01,2013-01-02 02:30:00,
2013-01-01 20:35:00,2.2,-2.5,30.21,WSW,248,0.0,1.0,80,0.00,,---,0.00,0.00,VWS V14.01,2013-01-02 02:35:00,
2013-01-01 20:40:00,2.6,-1.9,30.22,WSW,248,0.0,1.0,81,0.00,,---,0.00,0.00,VWS V14.01,2013-01-02 02:40:00,
2013-01-01 20:45:00,2.9,-1.6,30.22,WSW,248,0.0,1.0,81,0.00,,---,0.00,0.00,VWS V14.01,2013-01-02 02:45:00,
2013-01-01 20:50:00,3.3,-0.9,30.21,WSW,248,0.0,1.0,82,0.00,,---,0.00,0.00,VWS V14.01,2013-01-02 02:50:00,
2013-01-01 20:55:00,4.0,-0.3,30.21,WSW,248,0.0,1.0,82,0.00,,---,0.00,0.00,VWS V14.01,2013-01-02 02:55:00,
2013-01-01 21:00:00,4.4,0.4,30.21,WSW,248,0.0,0.0,83,0.00,,---,0.00,0.00,VWS V14.01,2013-01-02 03:00:00,
2013-01-01 21:05:00,4.8,0.8,30.21,WSW,248,1.0,1.0,83,0.00,,---,0.00,0.00,VWS V14.01,2013-01-02 03:05:00,
2013-01-01 21:10:00,6.3,2.8,30.21,WSW,240,5.0,5.0,85,0.00,,---,0.00,0.00,VWS V14.01,2013-01-02 03:10:00,
2013-01-01 21:15:00,8.7,5.1,30.21,SW,236,4.0,6.0,85,0.00,,---,0.00,0.00,VWS V14.01,2013-01-02 03:15:00,
2013-01-01 21:20:00,10.1,5.7,30.20,SW,236,4.0,6.0,82,0.00,,---,0.00,0.00,VWS V14.01,2013-01-02 03:20:00,
2013-01-01 21:25:00,11.2,6.2,30.20,SW,234,4.0,6.0,80,0.00,,---,0.00,0.00,VWS V14.01,2013-01-02 03:25:00,
2013-01-01 21:30:00,11.8,6.3,30.20,SW,236,3.0,6.0,78,0.00,,---,0.00,0.00,VWS V14.01,2013-01-02 03:30:00,
2013-01-01 21:35:00,12.2,6.4,30.20,WSW,238,3.0,6.0,77,0.00,,---,0.00,0.00,VWS V14.01,2013-01-02 03:35:00,
2013-01-01 21:40:00,12.4,6.3,30.20,WSW,238,1.0,6.0,76,0.00,,---,0.00,0.00,VWS V14.01,2013-01-02 03:40:00,
2013-01-01 21:45:00,12.5,6.1,30.20,WSW,237,2.0,6.0,75,0.00,,---,0.00,0.00,VWS V14.01,2013-01-02 03:45:00,
2013-01-01 21:50:00,12.7,6.3,30.20,WSW,240,3.0,6.0,75,0.00,,---,0.00,0.00,VWS V14.01,2013-01-02 03:50:00,
2013-01-01 21:55:00,12.9,6.5,30.20,SW,234,5.0,6.0,75,0.00,,---,0.00,0.00,VWS V14.01,2013-01-02 03:55:00,
2013-01-01 22:00:00,13.1,6.7,30.20,WSW,244,2.0,3.0,75,0.00,,---,0.00,0.00,VWS V14.01,2013-01-02 04:00:00,
2013-01-01 22:05:00,13.2,6.8,30.20,WSW,244,3.0,5.0,75,0.00,,---,0.00,0.00,VWS V14.01,2013-01-02 04:05:00,
2013-01-01 22:10:00,13.2,6.8,30.20,SW,228,3.0,5.0,75,0.00,,---,0.00,0.00,VWS V14.01,2013-01-02 04:10:00,
2013-01-01 22:15:00,13.3,6.9,30.20,WSW,244,2.0,7.0,75,0.00,,---,0.00,0.00,VWS V14.01,2013-01-02 04:15:00,
2013-01-01 22:20:00,13.4,7.0,30.20,WSW,244,1.0,7.0,75,0.00,,---,0.00,0.00,VWS V14.01,2013-01-02 04:20:00,
2013-01-01 22:25:00,13.4,7.3,30.20,WSW,242,2.0,7.0,76,0.00,,---,0.00,0.00,VWS V14.01,2013-01-02 04:25:00,
2013-01-01 22:30:00,13.4,7.3,30.20,SW,227,4.0,7.0,76,0.00,,---,0.00,0.00,VWS V14.01,2013-01-02 04:30:00,
2013-01-01 22:35:00,13.5,7.4,30.20,SW,232,3.0,7.0,76,0.00,,---,0.00,0.00,VWS V14.01,2013-01-02 04:35:00,
2013-01-01 22:40:00,13.5,7.4,30.20,SW,234,1.0,7.0,76,0.00,,---,0.00,0.00,VWS V14.01,2013-01-02 04:40:00,
2013-01-01 22:45:00,13.5,7.4,30.21,SW,233,1.0,7.0,76,0.00,,---,0.00,0.00,VWS V14.01,2013-01-02 04:45:00,
2013-01-01 22:50:00,13.5,7.4,30.20,WSW,239,3.0,7.0,76,0.00,,---,0.00,0.00,VWS V14.01,2013-01-02 04:50:00,
2013-01-01 22:55:00,13.6,7.5,30.20,WSW,239,3.0,7.0,76,0.00,,---,0.00,0.00,VWS V14.01,2013-01-02 04:55:00,
2013-01-01 23:00:00,13.5,7.1,30.20,WSW,242,3.0,4.0,75,0.00,,---,0.00,0.00,VWS V14.01,2013-01-02 05:00:00,
2013-01-01 23:01:00,13.5,7.1,30.20,WSW,242,3.0,4.0,75,0.00,,---,0.00,0.00,VWS V14.01,2013-01-02 05:01:00,
2013-01-01 23:06:00,13.4,7.0,30.20,WSW,238,3.0,5.0,75,0.00,,---,0.00,0.00,VWS V14.01,2013-01-02 05:06:00,
2013-01-01 23:11:00,13.4,7.0,30.20,WSW,238,3.0,5.0,75,0.00,,---,0.00,0.00,VWS V14.01,2013-01-02 05:11:00,
2013-01-01 23:16:00,13.4,7.0,30.20,SW,236,3.0,5.0,75,0.00,,---,0.00,0.00,VWS V14.01,2013-01-02 05:16:00,
2013-01-01 23:21:00,13.3,6.9,30.20,SW,236,2.0,5.0,75,0.00,,---,0.00,0.00,VWS V14.01,2013-01-02 05:21:00,
2013-01-01 23:26:00,13.3,7.2,30.20,SW,236,2.0,5.0,76,0.00,,---,0.00,0.00,VWS V14.01,2013-01-02 05:26:00,
2013-01-01 23:31:00,13.3,7.2,30.20,SW,236,2.0,5.0,76,0.00,,---,0.00,0.00,VWS V14.01,2013-01-02 05:31:00,
2013-01-01 23:36:00,13.4,7.6,30.20,SW,236,2.0,5.0,77,0.00,,---,0.00,0.00,VWS V14.01,2013-01-02 05:36:00,
2013-01-01 23:41:00,13.4,7.6,30.20,SW,236,4.0,5.0,77,0.00,,---,0.00,0.00,VWS V14.01,2013-01-02 05:41:00,
2013-01-01 23:46:00,13.4,7.3,30.20,SW,236,3.0,5.0,76,0.00,,---,0.00,0.00,VWS V14.01,2013-01-02 05:46:00,
2013-01-01 23:51:00,13.4,7.3,30.20,SW,236,2.0,5.0,76,0.00,,---,0.00,0.00,VWS V14.01,2013-01-02 05:51:00,
2013-01-01 23:56:00,13.5,7.7,30.20,SW,236,2.0,5.0,77,0.00,,---,0.00,0.00,VWS V14.01,2013-01-02 05:56:00,